Sanford, FL

9:45 AM EST on December 12, 2017 (GMT -0500)
Orlando Sanford

Weather History for KSFB - October, 2012

Change the Weather History Date:

Saturday, October 27, 2012

  Actual Average Record
Temperature  
Mean Temperature 70 °F 73 °F  
Max Temperature 72 °F 82 °F 92 °F (2010)
Min Temperature 66 °F 63 °F 47 °F (1982)
Degree Days  
Heating Degree Days 0 0  
Month to date heating degree days 0  
Since 1 July heating degree days 0  
Cooling Degree Days 4 8  
Month to date cooling degree days 300  
Year to date cooling degree days 3194  
Growing Degree Days 20 (Base 50)    
Moisture  
Dew Point 61 °F    
Average Humidity 72    
Maximum Humidity 79    
Minimum Humidity 66    
Precipitation  
Precipitation 0.00 in 0.08 in 0.85 in (2007)
Month to date precipitation 3.38  
Year to date precipitation 46.16  
Snow  
Snow 0.00 in - - ()
Month to date snowfall  
Since 1 July snowfall  
Snow Depth -    
Sea Level Pressure  
Sea Level Pressure 29.58 in    
Wind  
Wind Speed 18 mph (NW)    
Max Wind Speed 22 mph    
Max Gust Speed 31 mph    
Visibility 10 miles    
Events      
T = Trace of Precipitation, MM = Missing Value Source: NWS Daily Summary

Daily Weather History Graph

Daily Weather History Graph

Search for Another Location

Airport or City:

Trip Planner

Search our weather history database for the weather conditions in past years. The results will help you decide how hot, cold, wet, or windy it might be!

Date:

Astronomy

Oct. 27, 2012 Rise Set
Actual Time 7:33 AM EDT 6:43 PM EDT
Civil Twilight 7:09 AM EDT 7:07 PM EDT
Nautical Twilight 6:41 AM EDT 7:35 PM EDT
Astronomical Twilight 6:14 AM EDT 8:02 PM EDT
Moon 5:23 PM EDT (10/27) 5:34 AM EDT (10/27)
Length of Visible Light 11h 57m
Length of Day
11h 09m
Waxing Gibbous, 96% of the Moon is Illuminated
Oct 27
Waxing Gibbous
Oct 29
Full
Nov 6
Last Quarter
Nov 13
New
Nov 20
First Quarter

Hourly Weather History & Observations

Time (EDT) Temp. Dew Point Humidity Pressure Visibility Wind Dir Wind Speed Gust Speed Precip Events Conditions
12:29 AM 73.4 °F 62.6 °F 69% 29.61 in 10.0 mi NNW 20.7 mph 28.8 mph N/A   Overcast
12:39 AM 73.4 °F 62.6 °F 69% 29.61 in 10.0 mi North 21.9 mph 31.1 mph N/A   Overcast
12:53 AM 73.0 °F 62.1 °F 68% 29.59 in 10.0 mi NNW 18.4 mph 26.5 mph N/A   Overcast
1:37 AM 71.6 °F 62.6 °F 73% 29.58 in 10.0 mi NNW 16.1 mph 27.6 mph N/A   Overcast
1:53 AM 72.0 °F 62.1 °F 71% 29.57 in 10.0 mi NNW 18.4 mph 27.6 mph N/A   Overcast
2:38 AM 71.6 °F 62.6 °F 73% 29.56 in 10.0 mi NNW 16.1 mph 26.5 mph N/A   Overcast
2:53 AM 71.1 °F 62.1 °F 73% 29.56 in 10.0 mi NW 18.4 mph 27.6 mph N/A   Overcast
3:22 AM 71.6 °F 62.6 °F 73% 29.55 in 10.0 mi NNW 19.6 mph 25.3 mph N/A   Mostly Cloudy
3:42 AM 71.6 °F 62.6 °F 73% 29.54 in 10.0 mi NNW 18.4 mph 27.6 mph N/A   Overcast
3:53 AM 71.1 °F 62.1 °F 73% 29.53 in 10.0 mi NW 17.3 mph 26.5 mph N/A   Overcast
4:08 AM 71.6 °F 62.6 °F 73% 29.53 in 10.0 mi NW 17.3 mph 26.5 mph N/A   Overcast
4:30 AM 69.8 °F 60.8 °F 73% 29.52 in 10.0 mi NW 18.4 mph 28.8 mph N/A   Overcast
4:53 AM 70.0 °F 61.0 °F 73% 29.53 in 10.0 mi NW 17.3 mph 26.5 mph N/A   Overcast
5:14 AM 69.8 °F 60.8 °F 73% 29.53 in 10.0 mi NW 18.4 mph 26.5 mph N/A   Mostly Cloudy
5:49 AM 69.8 °F 60.8 °F 73% 29.53 in 10.0 mi NW 19.6 mph 28.8 mph N/A   Mostly Cloudy
5:53 AM 69.1 °F 61.0 °F 75% 29.53 in 10.0 mi NNW 19.6 mph 28.8 mph N/A   Mostly Cloudy
6:53 AM 69.1 °F 60.1 °F 73% 29.54 in 10.0 mi NW 17.3 mph 27.6 mph N/A   Mostly Cloudy
7:20 AM 68.0 °F 60.8 °F 78% 29.54 in 10.0 mi NW 20.7 mph 28.8 mph N/A   Scattered Clouds
7:45 AM 68.0 °F 60.8 °F 78% 29.56 in 10.0 mi NW 16.1 mph 24.2 mph N/A   Mostly Cloudy
7:53 AM 66.9 °F 60.1 °F 79% 29.56 in 10.0 mi NW 18.4 mph 26.5 mph N/A   Mostly Cloudy
8:53 AM 68.0 °F 60.1 °F 76% 29.59 in 10.0 mi NW 19.6 mph 29.9 mph N/A   Overcast
9:53 AM 69.1 °F 60.1 °F 73% 29.59 in 10.0 mi NW 17.3 mph 29.9 mph N/A   Partly Cloudy
10:53 AM 70.0 °F 61.0 °F 73% 29.61 in 10.0 mi NW 20.7 mph 27.6 mph N/A   Scattered Clouds
11:07 AM 69.8 °F 60.8 °F 73% 29.62 in 10.0 mi NW 20.7 mph 28.8 mph N/A   Mostly Cloudy
11:53 AM 70.0 °F 61.0 °F 73% 29.62 in 10.0 mi NW 17.3 mph 28.8 mph N/A   Mostly Cloudy
12:53 PM 70.0 °F 60.1 °F 71% 29.62 in 10.0 mi NW 19.6 mph 29.9 mph N/A   Overcast
1:35 PM 69.8 °F 60.8 °F 73% 29.61 in 10.0 mi NW 19.6 mph 27.6 mph N/A   Overcast
1:53 PM 70.0 °F 60.1 °F 71% 29.60 in 10.0 mi NW 17.3 mph 25.3 mph N/A   Overcast
2:12 PM 71.6 °F 60.8 °F 69% 29.60 in 10.0 mi NW 15.0 mph 28.8 mph N/A   Overcast
2:53 PM 72.0 °F 60.1 °F 66% 29.59 in 10.0 mi NW 16.1 mph 26.5 mph N/A   Scattered Clouds
3:53 PM 72.0 °F 60.1 °F 66% 29.57 in 10.0 mi WNW 16.1 mph 23.0 mph N/A   Partly Cloudy
4:53 PM 71.1 °F 59.0 °F 66% 29.57 in 10.0 mi NW 13.8 mph 24.2 mph N/A   Partly Cloudy
5:53 PM 71.1 °F 59.0 °F 66% 29.60 in 10.0 mi NW 18.4 mph 23.0 mph N/A   Mostly Cloudy
6:53 PM 69.1 °F 60.1 °F 73% 29.61 in 10.0 mi NW 10.4 mph - N/A   Clear
7:53 PM 69.1 °F 60.1 °F 73% 29.63 in 10.0 mi NW 10.4 mph - N/A   Clear
8:53 PM 69.1 °F 59.0 °F 70% 29.64 in 10.0 mi WNW 11.5 mph - N/A   Clear
9:53 PM 69.1 °F 59.0 °F 70% 29.65 in 10.0 mi WNW 10.4 mph - N/A   Clear
10:53 PM 69.1 °F 59.0 °F 70% 29.67 in 10.0 mi WNW 12.7 mph - N/A   Clear